www.pogodaiklimat.ru

Погода и климат >> Архив погоды >> Сенегал >> Dakar


АРХИВ ПОГОДЫ в Dakar

Время (UTC), дата Ветер
(напр.,м/с)
 
Видим.   Явления Облачность Т
(С)
Тd
(С)
f
(%)
Тe
(С)
Тes
(С)
Комфортность P
(гПа)
Po
(гПа)
Тmin
(С)
Tmax
(С)
R
(мм)
R24
(мм)
S
(см)
00 12.12 С 5 8000 м ясно +23.0 +18.9 78 +29 +29 очень
душно
1014.8 1011.5
03 12.12 С 5 8000 м ясно +23.0 +18.3 75 +29 +29 очень
душно
1014.0 1010.7
06 12.12 С 6 8000 м 4/0
[Ac trans]
+22.4 +16.9 71 +27 +27 душно 1014.0 1010.7 +22.2
09 12.12 С 4 10 км 6/0
[Ac trans Ci fib]
+24.1 +4.8 29 +24 +25 комфорт 1015.2 1011.9
15 12.12 С 5 10 км 6/0
[Ci sp]
+26.7 +17.2 56 +31 +35 душно 1012.4 1009.1
18 12.12 С 4 10 км 6/0
[Ci sp]
+34.9 +19.7 41 +41 +41 опасность
перегрева
1012.6 1009.3 +27.4
21 12.12 С 3 8000 м 1/0
[Ci sp]
+22.6 +20.5 88 +29 +29 очень
душно
1014.5 1011.2
00 13.12 С 5 8000 м 5/0
[Ci sp]
+22.7 +20.1 85 +29 +29 очень
душно
1014.9 1011.6
09 13.12 С 5 10 км 8/0
[Ac As Ci sp]
+23.3 +15.2 60 +27 +28 душно 1015.9 1012.6
12 13.12 С 6 10 км 8/0
[Ci sp]
+25.3 +13.9 49 +28 +31 жарко 1015.7 1012.4
15 13.12 С 6 10 км 5/0
[Ci sp]
+26.6 +15.0 49 +29 +33 жарко 1013.4 1010.1
18 13.12 С 5 10 км 1/0
[Ci sp]
+25.2 +17.8 64 +30 +30 душно 1013.4 1010.1 +26.9
21 13.12 С 5 8000 м ясно +23.4 +18.7 75 +30 +30 очень
душно
1014.5 1011.2
00 14.12 С 5 8000 м 3/0
[Ac trans]
+23.4 +18.3 73 +29 +29 душно 1015.1 1011.8
03 14.12 С 5 8000 м 4/0
[Ac trans]
+23.4 +17.8 71 +29 +29 душно 1014.8 1011.5
06 14.12 С 3 8000 м 4/0
[Ac trans Ci sp]
+22.4 +17.6 74 +27 +27 душно 1014.5 1011.2 +22.4
09 14.12 СВ 5 10 км 8/6 400 м
[Sc Ac trans]
+23.5 +11.0 45 +25 +25 комфорт 1016.4 1013.1
12 14.12 С 2 8000 м 9/9 400 м
[Sc]
+26.3 +10.8 38 +27 +28 жарко 1016.3 1013.1
15 14.12 С 5 10 км 8/0
[Ac trans Ci sp]
+26.4 +16.1 53 +30 +33 душно 1014.4 1011.2
18 14.12 С 4 10 км 8/0
[Ac trans Ci sp]
+24.8 +18.2 67 +29 +29 душно 1014.7 1011.4 +27.8
21 14.12 С 7 10 км 9/0
[Ac cast Ci sp]
+24.6 +17.1 63 +28 +28 душно 1017.0 1013.7
00 15.12 С 4 8000 м 8/3 400 м
[Sc Ac trans]
+24.4 +18.1 68 +29 +29 душно 1017.8 1014.5
03 15.12 С 3 8000 м 9/5 400 м
[Sc Ac trans]
+24.0 +19.5 76 +29 +29 душно 1017.5 1014.2
06 15.12 С 4 8000 м 8/3 400 м
[Sc Ac trans Ci fib]
+23.8 +17.8 69 +28 +28 душно 1017.5 1014.2 +23.1
09 15.12 С 5 10 км 9/0
[Ac As Ci sp]
+24.0 +14.8 56 +27 +27 жарко 1017.9 1014.6
12 15.12 С 5 10 км 9/0
[Ac As Ci sp]
+24.5 +14.5 54 +27 +30 жарко 1019.1 1015.8
15 15.12 С 8 10 км {дождь} 9/0
[Ac As]
+24.0 +16.0 61 +27 +28 жарко 1017.1 1013.8
18 15.12 С 4 10 км {дождь} 9/0
[Ac As]
+23.8 +17.1 66 +28 +28 душно 1017.6 1014.3 +27.9 0.0
21 15.12 С 3 10 км 3/0
[Ac trans]
+22.2 +17.7 76 +27 +27 душно 1018.7 1015.4
00 16.12 С 7 8000 м 6/0
[Ac trans]
+22.5 +17.2 72 +27 +27 душно 1018.3 1015.0
03 16.12 С 5 8000 м 5/0
[Ac trans]
+21.7 +17.7 78 +26 +26 душно 1017.5 1014.2
06 16.12 С 3 8000 м ясно +21.2 +17.7 80 +25 +25 комфорт 1017.4 1014.0 +21.1
09 16.12 С 4 8000 м 5/1 480 м
[Cu hum Ac trans Cc]
+22.2 +17.9 77 +27 +28 душно 1019.0 1015.7
12 16.12 С 7 10 км 6/0
[Ac trans]
+25.0 +17.7 64 +29 +31 душно 1018.6 1015.3
15 16.12 С 7 10 км 4/0
[Ac trans]
+25.2 +17.4 62 +29 +31 душно 1015.9 1012.6
18 16.12 С 6 10 км 3/0
[Ac cast]
+23.8 +18.1 70 +28 +28 душно 1015.5 1012.2 +25.6
21 16.12 С 6 8000 м ясно +22.1 +19.1 83 +28 +28 душно 1016.6 1013.3
00 17.12 С 6 8000 м ясно +21.4 +19.4 88 +26 +26 душно 1017.3 1014.0
03 17.12 С 5 8000 м 1/0
[Ac As]
+21.1 +19.7 92 +26 +26 душно 1016.4 1013.1
09 17.12 С 5 10 км 4/0
[Ac trans]
+21.8 +19.1 85 +27 +28 душно 1016.8 1013.5
12 17.12 С 6 10 км 1/0
[Ac trans]
+24.4 +18.8 71 +29 +33 душно 1016.8 1013.5
15 17.12 С 5 10 км ясно +25.4 +18.5 66 +30 +35 душно 1014.0 1010.7
18 17.12 С 6 10 км 4/0
[Ci sp]
+23.5 +18.1 72 +28 +28 душно 1014.0 1010.7 +25.6
21 17.12 СЗ 4 6000 м ясно +22.0 +19.5 86 +28 +28 душно 1015.8 1012.5
00 18.12 С 2 8000 м ясно +21.0 +19.6 92 +27 +27 душно 1016.3 1013.0
03 18.12 штиль 0 8000 м ясно +21.4 +19.2 87 +26 +26 душно 1015.5 1012.2
06 18.12 штиль 0 8000 м ясно +19.6 +18.8 95 +22 +22 комфорт 1015.2 1011.8 +19.6
09 18.12 С 5 10 км ясно +21.7 +16.3 71 +25 +27 комфорт 1017.0 1013.7
12 18.12 С 6 10 км 4/0
[Ci fib]
+24.7 +14.5 53 +27 +32 жарко 1016.9 1013.6
15 18.12 С 5 10 км 8/0
[Ci sp]
+25.3 +16.8 59 +29 +33 душно 1014.3 1011.0
18 18.12 СЗ 4 10 км 8/0
[Ac trans Ci fib]
+23.5 +19.6 79 +29 +29 душно 1014.1 1010.8 +26.0
21 18.12 С 4 8000 м 9/0
[Ac trans Ci sp]
+21.7 +19.0 85 +27 +27 душно 1015.6 1012.3

 

Местоположение метеостанции Dakar (Сенегал): широта 14.73 долгота -17.50 высота над уровнем моря 24 м.

В архиве по умолчанию представлена погода в Dakar за последнюю неделю. Архивные данные за месяц целиком и за предыдущие месяцы, начиная с января 2011 года, Вы можете получить, выбрав интересующий диапазон дат из раскрывающегося списка и нажав кнопку "Ввод!".


*Определитесь, кто Вы:
робот инопланетянин человек

Внимание! Время в таблицах - всемирное. Для получения местного времени необходимо прибавить поправку, которая в Dakar равна 0 ч.

Смотрите также архив погоды в соседних городах и на ближайших метеорологических станциях:

Погода в Diourbel (Сенегал) (137 км)
Погода в Kaolack (Сенегал) (169 км)
Погода в Banjil Int Airport (Гамбия) (180 км)
Погода в Banjul Half-Die (Гамбия) (182 км)
Погода в Saint-Louis (Сенегал) (185 км)
Погода в Kerewan (Гамбия) (205 км)
Погода в Sapu (Гамбия) (213 км)
Погода в Sibanor (Гамбия) (219 км)
Погода в Jenoi (Гамбия) (250 км)
Погода в Kauur (Гамбия) (261 км)

Пояснения к столбцам:

Ветер - указаны скорость ветра в м/с - средняя за 10 мин, порывы в срок и между сроками (в фигурных скобках) и направление, откуда дует ветер: С - северный, СВ - северо-восточный, В - восточный, ЮВ - юго-восточный, Ю - южный, ЮЗ - юго-западный, З - западный, СЗ - северо-западный.
Видимость - горизонтальная дальность видимости в метрах или километрах. При видимости от 1 до 10 км при отсутствии осадков обычно наблюдается дымка, при ухудшении видимости до 1 км и менее - туман. В сухую погоду видимость может ухудшаться дымом, пылью или мглою.
Явления - указаны атмосферные явления, наблюдавшиеся в срок или в последний час перед сроком; фигурными скобками обозначены явления, наблюдавшиеся между сроками (за 1-3 часа до срока); квадратными скобками обозначены град или гололедные отложения с указанием их диаметра в мм.
Облачность - указаны через наклонную черту общая и нижняя облачность в баллах и высота нижней границы облаков в метрах; квадратными скобками обозначены формы облаков: Ci - перистые, Cs - перисто-слоистые, Cc - перисто-кучевые, Ac - высококучевые, As - высокослоистые, Sc - слоисто-кучевые, Ns - слоисто-дождевые, Cu - кучевые, Cb - кучево-дождевые. Подробнее классификацию облаков см. в Атласе облаков (PDF).
T - Температура воздуха - температура, измеренная на высоте 2 м над землей.
Td - Температура точки росы - температура, при понижении до которой содержащийся в воздухе водяной пар достигнет насыщения.
f - Относительная влажность воздуха - влажноcть воздуха, измеренная на высоте 2 м над землей.
Te - Эффективная температура - температура, которую ощущает одетый по сезону человек в тени. Характеристика душности погоды. При расчете учитывается влияние влажности воздуха и скорости ветра на теплоощущения человека.
Tes - Эффективная температура на солнце - температура, которую ощущает человек, с поправкой на солнечный нагрев. Характеристика знойности погоды. Зависит от высоты солнца над горизонтом, облачности и скорости ветра. Ночью, в пасмурную погоду, а также при ветре 12 м/с и более поправка равна нулю.
P - Атмосферное давление - приведенное к уровню моря атмосферное давление.
Po - Атмосферное давление - измеренное на уровне метеостанции атмосферное давление.
Tmin - Минимальная температура - минимум температуры воздуха на высоте 2 м над землей.
Tmax - Максимальная температура - максимум температуры воздуха на высоте 2 м над землей.
R - Количество осадков - Количество выпавших осадков за период времени, мм. При наведении курсора мыши на число - период времени, за который выпало указанное количество осадков.
R24 - Количество осадков - Количество выпавших осадков за 24 часа, мм.
S - Снежный покров - Высота снежного покрова, см. При наведении курсора мыши на число - состояние снежного покрова и степень покрытия местности в баллах.